Time,TemperatureF,DewpointF,PressureIn,WindDirection,WindDirectionDegrees,WindSpeedMPH,WindSpeedGustMPH,Humidity,HourlyPrecipIn,Conditions,Clouds,dailyrainin,SoftwareType,DateUTC
2013-08-08 00:03:00,73.6,65.2,28.41,NNE,19,4.0,8.3,75,0.00,,---,0.00,VWS V14.01,2013-08-08 05:03:00,
2013-08-08 00:08:00,73.4,65.0,28.41,NNE,18,3.1,8.3,75,0.00,,---,0.00,VWS V14.01,2013-08-08 05:08:00,
2013-08-08 00:13:00,73.4,65.0,28.41,North,3,2.7,8.3,75,0.00,,---,0.00,VWS V14.01,2013-08-08 05:13:00,
2013-08-08 00:18:00,73.2,65.2,28.41,NW,319,4.0,8.3,76,0.00,,---,0.00,VWS V14.01,2013-08-08 05:18:00,
2013-08-08 00:23:00,73.0,65.0,28.41,ESE,103,0.0,8.3,76,0.00,,---,0.00,VWS V14.01,2013-08-08 05:23:00,
2013-08-08 00:28:00,73.0,65.4,28.41,North,0,3.1,8.3,77,0.00,,---,0.00,VWS V14.01,2013-08-08 05:28:00,
2013-08-08 00:33:00,72.9,65.2,28.41,NNE,17,3.1,8.3,77,0.00,,---,0.00,VWS V14.01,2013-08-08 05:33:00,
2013-08-08 00:38:00,72.7,65.1,28.41,NNE,13,2.7,8.3,77,0.00,,---,0.00,VWS V14.01,2013-08-08 05:38:00,
2013-08-08 00:44:00,72.5,64.9,28.41,NNE,17,4.9,8.3,77,0.00,,---,0.00,VWS V14.01,2013-08-08 05:44:00,
2013-08-08 00:49:00,72.5,64.9,28.41,NNE,12,3.6,8.3,77,0.00,,---,0.00,VWS V14.01,2013-08-08 05:49:00,
2013-08-08 00:54:00,72.3,64.7,28.41,North,357,5.4,8.3,77,0.00,,---,0.00,VWS V14.01,2013-08-08 05:54:00,
2013-08-08 00:59:00,72.3,64.7,28.41,North,0,2.7,8.3,77,0.00,,---,0.00,VWS V14.01,2013-08-08 05:59:00,
2013-08-08 01:04:00,72.1,64.5,28.41,NNE,25,3.6,6.3,77,0.00,,---,0.00,VWS V14.01,2013-08-08 06:04:00,
2013-08-08 01:09:00,72.1,64.2,28.38,NNE,32,3.1,6.3,76,0.00,,---,0.00,VWS V14.01,2013-08-08 06:09:00,
2013-08-08 01:14:00,72.1,64.2,28.38,NNE,24,5.8,6.3,76,0.00,,---,0.00,VWS V14.01,2013-08-08 06:14:00,
2013-08-08 01:19:00,72.0,64.0,28.38,NNE,16,3.6,6.3,76,0.00,,---,0.00,VWS V14.01,2013-08-08 06:19:00,
2013-08-08 01:24:00,72.0,63.6,28.38,NNE,30,2.7,6.3,75,0.00,,---,0.00,VWS V14.01,2013-08-08 06:24:00,
2013-08-08 01:30:00,71.8,63.4,28.38,North,4,5.4,8.3,75,0.00,,---,0.00,VWS V14.01,2013-08-08 06:30:00,
2013-08-08 01:35:00,71.8,63.1,28.38,North,9,8.3,8.3,74,0.00,,---,0.00,VWS V14.01,2013-08-08 06:35:00,
2013-08-08 01:40:00,71.6,62.9,28.38,North,357,3.1,8.7,74,0.00,,---,0.00,VWS V14.01,2013-08-08 06:40:00,
2013-08-08 01:45:00,71.6,62.5,28.38,NNW,348,6.3,8.7,73,0.00,,---,0.00,VWS V14.01,2013-08-08 06:45:00,
2013-08-08 01:50:00,71.6,62.5,28.38,NNE,27,2.7,8.7,73,0.00,,---,0.00,VWS V14.01,2013-08-08 06:50:00,
2013-08-08 01:55:00,71.4,62.3,28.35,NNE,22,3.6,8.7,73,0.00,,---,0.00,VWS V14.01,2013-08-08 06:55:00,
2013-08-08 02:00:00,71.4,62.3,28.35,NNE,31,3.6,4.0,73,0.00,,---,0.00,VWS V14.01,2013-08-08 07:00:00,
2013-08-08 02:05:00,71.4,62.3,28.35,North,9,6.7,8.1,73,0.00,,---,0.00,VWS V14.01,2013-08-08 07:05:00,
2013-08-08 02:10:00,71.2,62.2,28.35,NNE,17,5.4,8.3,73,0.00,,---,0.00,VWS V14.01,2013-08-08 07:10:00,
2013-08-08 02:16:00,71.2,62.2,28.35,NNE,18,2.7,8.3,73,0.00,,---,0.00,VWS V14.01,2013-08-08 07:16:00,
2013-08-08 02:21:00,71.1,62.0,28.35,NNW,348,2.2,8.3,73,0.00,,---,0.00,VWS V14.01,2013-08-08 07:21:00,
2013-08-08 02:26:00,70.9,61.8,28.38,NNE,14,4.0,8.7,73,0.00,,---,0.00,VWS V14.01,2013-08-08 07:26:00,
2013-08-08 02:31:00,70.7,62.0,28.38,NNW,346,3.6,8.7,74,0.00,,---,0.00,VWS V14.01,2013-08-08 07:31:00,
2013-08-08 02:36:00,70.7,62.0,28.38,NNE,31,2.2,8.7,74,0.00,,---,0.00,VWS V14.01,2013-08-08 07:36:00,
2013-08-08 02:41:00,70.5,61.8,28.35,NNE,14,3.6,8.7,74,0.00,,---,0.00,VWS V14.01,2013-08-08 07:41:00,
2013-08-08 02:46:00,70.3,61.7,28.35,NNE,20,0.0,8.7,74,0.00,,---,0.00,VWS V14.01,2013-08-08 07:46:00,
2013-08-08 02:51:00,70.2,61.5,28.35,North,0,3.6,8.7,74,0.00,,---,0.00,VWS V14.01,2013-08-08 07:51:00,
2013-08-08 02:57:00,70.2,61.9,28.35,NNW,346,4.9,8.7,75,0.00,,---,0.00,VWS V14.01,2013-08-08 07:57:00,
2013-08-08 03:02:00,70.0,61.7,28.35,North,3,3.1,5.8,75,0.00,,---,0.00,VWS V14.01,2013-08-08 08:02:00,
2013-08-08 03:07:00,70.0,61.7,28.35,NNE,19,2.2,5.8,75,0.00,,---,0.00,VWS V14.01,2013-08-08 08:07:00,
2013-08-08 03:12:00,70.0,61.7,28.35,North,353,2.2,5.8,75,0.00,,---,0.00,VWS V14.01,2013-08-08 08:12:00,
2013-08-08 03:17:00,69.8,61.5,28.35,North,353,3.1,5.8,75,0.00,,---,0.00,VWS V14.01,2013-08-08 08:17:00,
2013-08-08 03:22:00,69.8,61.5,28.32,NNE,27,3.1,5.8,75,0.00,,---,0.00,VWS V14.01,2013-08-08 08:22:00,
2013-08-08 03:27:00,69.8,61.5,28.32,North,357,5.4,5.8,75,0.00,,---,0.00,VWS V14.01,2013-08-08 08:27:00,
2013-08-08 03:32:00,69.8,61.5,28.32,NNE,28,4.0,6.3,75,0.00,,---,0.00,VWS V14.01,2013-08-08 08:32:00,
2013-08-08 03:37:00,69.8,61.2,28.35,NNE,23,3.1,6.3,74,0.00,,---,0.00,VWS V14.01,2013-08-08 08:37:00,
2013-08-08 03:43:00,69.8,61.2,28.35,North,6,4.0,8.1,74,0.00,,---,0.00,VWS V14.01,2013-08-08 08:43:00,
2013-08-08 03:48:00,69.8,61.2,28.35,North,10,0.0,8.1,74,0.00,,---,0.00,VWS V14.01,2013-08-08 08:48:00,
2013-08-08 03:53:00,69.8,61.2,28.38,NNE,14,3.1,8.1,74,0.00,,---,0.00,VWS V14.01,2013-08-08 08:53:00,
2013-08-08 03:58:00,69.8,60.8,28.38,NNE,25,3.6,8.1,73,0.00,,---,0.00,VWS V14.01,2013-08-08 08:58:00,
2013-08-08 04:03:00,69.8,60.8,28.38,NNE,28,5.4,5.8,73,0.00,,---,0.00,VWS V14.01,2013-08-08 09:03:00,
2013-08-08 04:08:00,69.8,60.8,28.35,North,353,6.3,7.6,73,0.00,,---,0.00,VWS V14.01,2013-08-08 09:08:00,
2013-08-08 04:13:00,69.6,60.6,28.35,North,0,2.2,7.6,73,0.00,,---,0.00,VWS V14.01,2013-08-08 09:13:00,
2013-08-08 04:18:00,69.6,60.6,28.35,North,8,5.8,7.6,73,0.00,,---,0.00,VWS V14.01,2013-08-08 09:18:00,
2013-08-08 04:23:00,69.6,60.6,28.35,NNE,30,3.6,7.6,73,0.00,,---,0.00,VWS V14.01,2013-08-08 09:23:00,
2013-08-08 04:29:00,69.6,60.6,28.35,NNE,20,5.4,7.6,73,0.00,,---,0.00,VWS V14.01,2013-08-08 09:29:00,
2013-08-08 04:34:00,69.6,60.6,28.35,NE,41,5.4,8.7,73,0.00,,---,0.00,VWS V14.01,2013-08-08 09:34:00,
2013-08-08 04:39:00,69.4,60.4,28.35,NNE,16,4.0,8.7,73,0.00,,---,0.00,VWS V14.01,2013-08-08 09:39:00,
2013-08-08 04:44:00,69.4,60.4,28.35,North,11,3.1,8.7,73,0.00,,---,0.00,VWS V14.01,2013-08-08 09:44:00,
2013-08-08 04:49:00,69.4,60.8,28.35,North,7,2.7,8.7,74,0.00,,---,0.00,VWS V14.01,2013-08-08 09:49:00,
2013-08-08 04:54:00,69.4,60.8,28.35,NNE,28,3.1,8.7,74,0.00,,---,0.00,VWS V14.01,2013-08-08 09:54:00,
2013-08-08 04:59:00,69.4,60.8,28.35,East,98,0.0,8.7,74,0.00,,---,0.00,VWS V14.01,2013-08-08 09:59:00,
2013-08-08 05:04:00,69.3,60.6,28.35,North,0,0.0,5.8,74,0.00,,---,0.00,VWS V14.01,2013-08-08 10:04:00,
2013-08-08 05:09:00,69.4,61.2,28.38,North,5,3.1,5.8,75,0.00,,---,0.00,VWS V14.01,2013-08-08 10:09:00,
2013-08-08 05:15:00,69.4,61.2,28.38,North,353,3.6,5.8,75,0.00,,---,0.00,VWS V14.01,2013-08-08 10:15:00,
2013-08-08 05:20:00,69.4,61.2,28.38,NNE,12,3.1,7.6,75,0.00,,---,0.00,VWS V14.01,2013-08-08 10:20:00,
2013-08-08 05:25:00,69.4,61.2,28.38,NE,48,0.0,7.6,75,0.00,,---,0.00,VWS V14.01,2013-08-08 10:25:00,
2013-08-08 05:30:00,69.4,61.2,28.38,NNE,12,3.6,7.6,75,0.00,,---,0.00,VWS V14.01,2013-08-08 10:30:00,
2013-08-08 05:35:00,69.3,61.4,28.38,North,0,4.0,7.6,76,0.00,,---,0.00,VWS V14.01,2013-08-08 10:35:00,
2013-08-08 05:40:00,69.1,61.2,28.38,North,4,3.1,7.6,76,0.00,,---,0.00,VWS V14.01,2013-08-08 10:40:00,
2013-08-08 05:45:00,68.9,61.4,28.38,NNE,22,0.0,7.6,77,0.00,,---,0.00,VWS V14.01,2013-08-08 10:45:00,
2013-08-08 05:50:00,68.7,61.6,28.38,North,1,3.6,7.6,78,0.00,,---,0.00,VWS V14.01,2013-08-08 10:50:00,
2013-08-08 05:55:00,68.7,61.6,28.38,North,353,0.0,7.6,78,0.00,,---,0.00,VWS V14.01,2013-08-08 10:55:00,
2013-08-08 06:01:00,68.4,61.6,28.38,North,357,0.0,0.0,79,0.00,,---,0.00,VWS V14.01,2013-08-08 11:01:00,
2013-08-08 06:06:00,68.4,62.0,28.38,NE,37,0.0,4.9,80,0.00,,---,0.00,VWS V14.01,2013-08-08 11:06:00,
2013-08-08 06:11:00,68.2,61.8,28.38,NNE,23,0.0,4.9,80,0.00,,---,0.00,VWS V14.01,2013-08-08 11:11:00,
2013-08-08 06:16:00,68.2,62.1,28.38,NNW,345,2.7,5.8,81,0.00,,---,0.00,VWS V14.01,2013-08-08 11:16:00,
2013-08-08 06:21:00,68.0,62.3,28.38,North,6,2.2,6.3,82,0.00,,---,0.00,VWS V14.01,2013-08-08 11:21:00,
2013-08-08 06:26:00,68.0,62.7,28.38,North,353,3.6,6.3,83,0.00,,---,0.00,VWS V14.01,2013-08-08 11:26:00,
2013-08-08 06:31:00,68.0,63.0,28.38,North,6,2.7,6.7,84,0.00,,---,0.00,VWS V14.01,2013-08-08 11:31:00,
2013-08-08 06:37:00,68.0,63.0,28.38,NNE,31,2.7,6.7,84,0.00,,---,0.00,VWS V14.01,2013-08-08 11:37:00,
2013-08-08 06:42:00,68.0,63.3,28.35,NNE,27,3.6,8.1,85,0.00,,---,0.00,VWS V14.01,2013-08-08 11:42:00,
2013-08-08 06:47:00,68.0,63.7,28.35,NNE,22,4.0,8.1,86,0.00,,---,0.00,VWS V14.01,2013-08-08 11:47:00,
2013-08-08 06:52:00,68.0,64.0,28.35,NNE,19,3.1,8.1,87,0.04,,---,0.04,VWS V14.01,2013-08-08 11:52:00,
2013-08-08 06:57:00,68.0,64.0,28.35,NNE,16,3.1,8.1,87,0.04,,---,0.04,VWS V14.01,2013-08-08 11:57:00,
2013-08-08 07:02:00,68.0,64.3,28.35,North,4,3.1,5.8,88,0.04,,---,0.04,VWS V14.01,2013-08-08 12:02:00,
2013-08-08 07:07:00,68.0,64.3,28.35,North,350,0.0,8.7,88,0.04,,---,0.04,VWS V14.01,2013-08-08 12:07:00,
2013-08-08 07:12:00,68.0,64.3,28.35,NNE,33,5.4,8.7,88,0.04,,---,0.04,VWS V14.01,2013-08-08 12:12:00,
2013-08-08 07:18:00,67.8,64.5,28.35,North,6,5.4,8.7,89,0.04,,---,0.04,VWS V14.01,2013-08-08 12:18:00,
2013-08-08 07:23:00,67.8,64.8,28.35,North,0,3.6,8.7,90,0.04,,---,0.04,VWS V14.01,2013-08-08 12:23:00,
2013-08-08 07:28:00,67.8,64.8,28.35,NNE,20,0.0,8.7,90,0.04,,---,0.04,VWS V14.01,2013-08-08 12:28:00,
2013-08-08 07:33:00,67.8,64.8,28.35,NNE,13,2.7,8.7,90,0.04,,---,0.04,VWS V14.01,2013-08-08 12:33:00,
2013-08-08 07:38:00,67.8,64.8,28.35,North,353,0.0,8.7,90,0.04,,---,0.04,VWS V14.01,2013-08-08 12:38:00,
2013-08-08 07:43:00,67.8,64.8,28.35,North,6,0.0,8.7,90,0.04,,---,0.04,VWS V14.01,2013-08-08 12:43:00,
2013-08-08 07:48:00,67.8,64.8,28.35,North,1,0.0,8.7,90,0.04,,---,0.04,VWS V14.01,2013-08-08 12:48:00,
2013-08-08 07:53:00,67.8,64.8,28.35,North,1,0.0,8.7,90,0.04,,---,0.04,VWS V14.01,2013-08-08 12:53:00,
2013-08-08 07:59:00,67.8,65.1,28.35,NNE,31,2.7,8.7,91,0.04,,---,0.04,VWS V14.01,2013-08-08 12:59:00,
2013-08-08 08:04:00,67.8,65.1,28.35,North,353,3.6,4.9,91,0.00,,---,0.04,VWS V14.01,2013-08-08 13:04:00,
2013-08-08 08:09:00,67.8,65.1,28.35,NNW,345,3.6,4.9,91,0.00,,---,0.04,VWS V14.01,2013-08-08 13:09:00,
2013-08-08 08:14:00,68.0,65.3,28.35,ENE,60,3.1,5.8,91,0.00,,---,0.04,VWS V14.01,2013-08-08 13:14:00,
2013-08-08 08:19:00,68.0,65.3,28.35,NNE,22,4.0,6.3,91,0.00,,---,0.04,VWS V14.01,2013-08-08 13:19:00,
2013-08-08 08:24:00,68.2,65.8,28.35,North,353,3.1,6.3,92,0.00,,---,0.04,VWS V14.01,2013-08-08 13:24:00,
2013-08-08 08:29:00,68.2,65.8,28.35,NNE,22,2.2,6.3,92,0.00,,---,0.04,VWS V14.01,2013-08-08 13:29:00,
2013-08-08 08:34:00,68.2,65.8,28.35,NNE,16,0.0,6.3,92,0.00,,---,0.04,VWS V14.01,2013-08-08 13:34:00,
2013-08-08 08:40:00,68.2,65.8,28.35,NNE,22,0.0,6.3,92,0.00,,---,0.04,VWS V14.01,2013-08-08 13:40:00,
2013-08-08 08:45:00,68.2,65.8,28.35,North,357,0.0,6.3,92,0.00,,---,0.04,VWS V14.01,2013-08-08 13:45:00,
2013-08-08 08:50:00,68.2,66.1,28.35,North,357,0.0,6.3,93,0.00,,---,0.04,VWS V14.01,2013-08-08 13:50:00,
2013-08-08 08:55:00,68.2,66.1,28.38,North,357,0.0,6.3,93,0.00,,---,0.04,VWS V14.01,2013-08-08 13:55:00,
2013-08-08 09:00:00,68.4,66.3,28.38,North,357,0.0,0.0,93,0.00,,---,0.04,VWS V14.01,2013-08-08 14:00:00,
2013-08-08 09:05:00,68.4,66.3,28.38,North,357,0.0,0.0,93,0.00,,---,0.04,VWS V14.01,2013-08-08 14:05:00,
2013-08-08 09:10:00,68.5,66.4,28.38,North,357,0.0,0.0,93,0.00,,---,0.04,VWS V14.01,2013-08-08 14:10:00,
2013-08-08 09:15:00,68.5,66.4,28.38,North,357,0.0,0.0,93,0.00,,---,0.04,VWS V14.01,2013-08-08 14:15:00,
2013-08-08 09:20:00,68.7,66.6,28.38,NE,36,5.8,6.3,93,0.00,,---,0.04,VWS V14.01,2013-08-08 14:20:00,
2013-08-08 09:25:00,68.9,67.1,28.38,NNE,28,4.0,6.3,94,0.00,,---,0.04,VWS V14.01,2013-08-08 14:25:00,
2013-08-08 09:30:00,69.1,67.3,28.38,NE,34,2.7,6.3,94,0.00,,---,0.04,VWS V14.01,2013-08-08 14:30:00,
2013-08-08 09:36:00,69.1,67.3,28.38,North,357,3.1,7.6,94,0.00,,---,0.04,VWS V14.01,2013-08-08 14:36:00,
2013-08-08 09:41:00,69.1,67.3,28.38,North,0,0.0,7.6,94,0.00,,---,0.04,VWS V14.01,2013-08-08 14:41:00,
2013-08-08 09:46:00,69.3,67.5,28.38,North,353,0.0,7.6,94,0.00,,---,0.04,VWS V14.01,2013-08-08 14:46:00,
2013-08-08 09:51:00,69.3,67.5,28.38,North,349,3.1,7.6,94,0.00,,---,0.04,VWS V14.01,2013-08-08 14:51:00,
2013-08-08 09:56:00,69.3,67.5,28.38,North,0,2.7,7.6,94,0.00,,---,0.04,VWS V14.01,2013-08-08 14:56:00,
2013-08-08 09:58:00,69.3,67.5,28.38,North,0,0.0,7.6,94,0.00,,---,0.04,VWS V14.01,2013-08-08 14:58:00,
2013-08-08 10:03:00,69.4,67.6,28.38,North,0,0.0,0.0,94,0.00,,---,0.04,VWS V14.01,2013-08-08 15:03:00,
2013-08-08 10:08:00,69.6,67.8,28.41,North,1,0.0,3.6,94,0.00,,---,0.04,VWS V14.01,2013-08-08 15:08:00,
2013-08-08 10:13:00,69.8,68.0,28.41,NNE,14,0.0,3.6,94,0.00,,---,0.04,VWS V14.01,2013-08-08 15:13:00,
2013-08-08 10:18:00,70.0,68.2,28.41,SSE,162,0.0,3.6,94,0.00,,---,0.04,VWS V14.01,2013-08-08 15:18:00,
2013-08-08 10:23:00,70.0,68.2,28.41,East,90,0.0,4.5,94,0.00,,---,0.04,VWS V14.01,2013-08-08 15:23:00,
2013-08-08 10:28:00,70.0,68.2,28.41,NNE,19,0.0,4.5,94,0.00,,---,0.04,VWS V14.01,2013-08-08 15:28:00,
2013-08-08 10:33:00,70.2,68.4,28.41,ENE,64,0.0,4.5,94,0.00,,---,0.04,VWS V14.01,2013-08-08 15:33:00,
2013-08-08 10:39:00,70.2,68.1,28.41,ESE,117,0.0,4.5,93,0.00,,---,0.04,VWS V14.01,2013-08-08 15:39:00,
2013-08-08 10:44:00,70.2,68.1,28.41,NNE,18,2.7,4.5,93,0.00,,---,0.04,VWS V14.01,2013-08-08 15:44:00,
2013-08-08 10:49:00,70.3,67.9,28.41,North,353,0.0,4.9,92,0.00,,---,0.04,VWS V14.01,2013-08-08 15:49:00,
2013-08-08 10:54:00,70.7,68.3,28.41,NE,46,5.8,6.3,92,0.00,,---,0.04,VWS V14.01,2013-08-08 15:54:00,
2013-08-08 10:59:00,70.9,68.1,28.41,North,353,3.1,6.7,91,0.00,,---,0.04,VWS V14.01,2013-08-08 15:59:00,
2013-08-08 11:04:00,71.2,68.2,28.41,North,357,2.7,5.4,90,0.00,,---,0.04,VWS V14.01,2013-08-08 16:04:00,
2013-08-08 11:09:00,71.2,67.2,28.41,North,353,3.6,10.1,87,0.00,,---,0.04,VWS V14.01,2013-08-08 16:09:00,
2013-08-08 11:14:00,71.6,66.9,28.41,NNW,348,2.7,10.1,85,0.08,,---,0.12,VWS V14.01,2013-08-08 16:14:00,
2013-08-08 11:19:00,72.0,66.9,28.41,NNE,30,3.1,10.1,84,0.08,,---,0.12,VWS V14.01,2013-08-08 16:19:00,
2013-08-08 11:25:00,72.0,66.5,28.41,NE,44,4.0,10.1,83,0.08,,---,0.12,VWS V14.01,2013-08-08 16:25:00,
2013-08-08 11:30:00,72.0,65.8,28.41,SSE,167,2.7,10.1,81,0.08,,---,0.12,VWS V14.01,2013-08-08 16:30:00,
2013-08-08 11:35:00,71.8,64.9,28.41,NE,34,4.0,10.1,79,0.08,,---,0.12,VWS V14.01,2013-08-08 16:35:00,
2013-08-08 11:40:00,72.0,64.7,28.44,North,9,3.6,10.1,78,0.08,,---,0.12,VWS V14.01,2013-08-08 16:40:00,
2013-08-08 11:45:00,71.8,64.6,28.44,NE,43,0.0,10.1,78,0.08,,---,0.12,VWS V14.01,2013-08-08 16:45:00,
2013-08-08 11:50:00,71.4,64.6,28.44,NNE,18,2.2,10.1,79,0.08,,---,0.12,VWS V14.01,2013-08-08 16:50:00,
2013-08-08 11:55:00,71.2,64.4,28.44,North,7,0.0,10.1,79,0.08,,---,0.12,VWS V14.01,2013-08-08 16:55:00,
2013-08-08 12:00:00,71.2,64.4,28.44,East,83,3.6,3.6,79,0.08,,---,0.12,VWS V14.01,2013-08-08 17:00:00,
2013-08-08 12:05:00,71.1,64.6,28.44,North,2,3.1,6.3,80,0.08,,---,0.12,VWS V14.01,2013-08-08 17:05:00,
2013-08-08 12:11:00,71.1,64.6,28.41,NNE,32,3.6,6.3,80,0.08,,---,0.12,VWS V14.01,2013-08-08 17:11:00,
2013-08-08 12:16:00,71.2,64.8,28.41,NNE,20,0.0,6.3,80,0.08,,---,0.12,VWS V14.01,2013-08-08 17:16:00,
2013-08-08 12:21:00,71.8,65.6,28.41,North,7,4.0,6.3,81,0.08,,---,0.12,VWS V14.01,2013-08-08 17:21:00,
2013-08-08 12:26:00,72.3,66.2,28.41,North,9,0.0,6.3,81,0.08,,---,0.12,VWS V14.01,2013-08-08 17:26:00,
2013-08-08 12:31:00,72.9,66.3,28.41,NE,56,0.0,6.3,80,0.08,,---,0.12,VWS V14.01,2013-08-08 17:31:00,
2013-08-08 12:36:00,73.2,66.7,28.41,South,173,4.0,6.3,80,0.08,,---,0.12,VWS V14.01,2013-08-08 17:36:00,
2013-08-08 12:41:00,73.6,66.3,28.41,ENE,75,0.0,6.3,78,0.08,,---,0.12,VWS V14.01,2013-08-08 17:41:00,
2013-08-08 12:46:00,73.9,65.9,28.41,North,0,0.0,6.3,76,0.08,,---,0.12,VWS V14.01,2013-08-08 17:46:00,
2013-08-08 12:52:00,73.9,65.1,28.41,NNE,27,0.0,6.3,74,0.08,,---,0.12,VWS V14.01,2013-08-08 17:52:00,
2013-08-08 12:57:00,74.1,64.9,28.41,North,357,6.3,6.3,73,0.08,,---,0.12,VWS V14.01,2013-08-08 17:57:00,
2013-08-08 13:02:00,74.1,62.9,28.41,North,0,3.1,6.3,68,0.00,,---,0.12,VWS V14.01,2013-08-08 18:02:00,
2013-08-08 13:07:00,74.5,63.2,28.41,East,99,0.0,6.3,68,0.00,,---,0.12,VWS V14.01,2013-08-08 18:07:00,
2013-08-08 13:12:00,74.5,62.0,28.41,North,8,2.2,6.3,65,0.00,,---,0.12,VWS V14.01,2013-08-08 18:12:00,
2013-08-08 13:17:00,74.5,62.0,28.41,ENE,78,5.4,6.3,65,0.00,,---,0.12,VWS V14.01,2013-08-08 18:17:00,
2013-08-08 13:22:00,74.5,62.0,28.41,WNW,303,0.0,6.3,65,0.00,,---,0.12,VWS V14.01,2013-08-08 18:22:00,
2013-08-08 13:27:00,74.3,61.8,28.41,NNW,342,0.0,6.3,65,0.00,,---,0.12,VWS V14.01,2013-08-08 18:27:00,
2013-08-08 13:32:00,74.1,62.0,28.41,ESE,109,2.2,8.3,66,0.00,,---,0.12,VWS V14.01,2013-08-08 18:32:00,
2013-08-08 13:38:00,73.8,62.1,28.41,North,0,3.6,8.7,67,0.00,,---,0.12,VWS V14.01,2013-08-08 18:38:00,
2013-08-08 13:43:00,73.6,62.4,28.41,NNE,18,0.0,8.7,68,0.00,,---,0.12,VWS V14.01,2013-08-08 18:43:00,
2013-08-08 13:48:00,73.2,62.5,28.41,NNE,12,0.0,8.7,69,0.00,,---,0.12,VWS V14.01,2013-08-08 18:48:00,
2013-08-08 13:53:00,73.0,61.9,28.41,NNE,13,2.7,8.7,68,0.00,,---,0.12,VWS V14.01,2013-08-08 18:53:00,
2013-08-08 13:58:00,72.7,61.5,28.41,NNW,337,4.0,8.7,68,0.00,,---,0.12,VWS V14.01,2013-08-08 18:58:00,
2013-08-08 14:03:00,72.5,61.8,28.41,North,357,2.7,4.9,69,0.00,,---,0.12,VWS V14.01,2013-08-08 19:03:00,
2013-08-08 14:08:00,72.3,62.0,28.44,NNW,334,0.0,10.1,70,0.00,,---,0.12,VWS V14.01,2013-08-08 19:08:00,
2013-08-08 14:13:00,72.1,62.2,28.44,NNW,340,3.6,10.1,71,0.00,,---,0.12,VWS V14.01,2013-08-08 19:13:00,
2013-08-08 14:19:00,72.0,62.5,28.44,North,1,5.4,10.1,72,0.00,,---,0.12,VWS V14.01,2013-08-08 19:19:00,
2013-08-08 14:24:00,71.8,63.1,28.44,NE,34,4.0,10.1,74,0.00,,---,0.12,VWS V14.01,2013-08-08 19:24:00,
2013-08-08 14:29:00,71.8,63.4,28.44,North,357,2.7,10.1,75,0.00,,---,0.12,VWS V14.01,2013-08-08 19:29:00,
2013-08-08 14:34:00,72.0,64.0,28.44,NNW,346,4.0,10.1,76,0.00,,---,0.12,VWS V14.01,2013-08-08 19:34:00,
2013-08-08 14:39:00,71.8,64.2,28.44,NNE,33,2.7,10.1,77,0.00,,---,0.12,VWS V14.01,2013-08-08 19:39:00,
2013-08-08 14:44:00,71.6,64.0,28.44,North,9,2.2,10.1,77,0.00,,---,0.12,VWS V14.01,2013-08-08 19:44:00,
2013-08-08 14:49:00,71.4,64.2,28.44,North,353,5.8,10.1,78,0.00,,---,0.12,VWS V14.01,2013-08-08 19:49:00,
2013-08-08 14:54:00,71.1,63.9,28.44,NNE,19,3.1,10.1,78,0.00,,---,0.12,VWS V14.01,2013-08-08 19:54:00,
2013-08-08 14:59:00,70.7,63.9,28.44,North,357,6.3,10.1,79,0.00,,---,0.12,VWS V14.01,2013-08-08 19:59:00,
2013-08-08 15:05:00,70.3,63.5,28.44,NNE,14,5.8,7.6,79,0.00,,---,0.12,VWS V14.01,2013-08-08 20:05:00,
2013-08-08 15:10:00,70.2,63.7,28.44,North,9,4.0,8.3,80,0.00,,---,0.12,VWS V14.01,2013-08-08 20:10:00,
2013-08-08 15:15:00,69.8,63.4,28.44,NNE,15,3.6,8.3,80,0.00,,---,0.12,VWS V14.01,2013-08-08 20:15:00,
2013-08-08 15:20:00,69.6,63.2,28.44,NW,304,3.6,8.3,80,0.00,,---,0.12,VWS V14.01,2013-08-08 20:20:00,
2013-08-08 15:25:00,69.4,63.0,28.44,NNW,331,0.0,8.3,80,0.00,,---,0.12,VWS V14.01,2013-08-08 20:25:00,
2013-08-08 15:30:00,69.3,62.8,28.44,North,0,3.6,8.3,80,0.00,,---,0.12,VWS V14.01,2013-08-08 20:30:00,
2013-08-08 15:35:00,69.3,62.8,28.44,NNE,18,0.0,8.3,80,0.00,,---,0.12,VWS V14.01,2013-08-08 20:35:00,
2013-08-08 15:40:00,69.3,62.5,28.44,NNW,329,0.0,8.3,79,0.00,,---,0.12,VWS V14.01,2013-08-08 20:40:00,
2013-08-08 15:46:00,69.1,62.3,28.44,North,357,2.2,8.3,79,0.00,,---,0.12,VWS V14.01,2013-08-08 20:46:00,
2013-08-08 15:51:00,68.9,61.8,28.44,North,357,2.2,8.3,78,0.00,,---,0.12,VWS V14.01,2013-08-08 20:51:00,
2013-08-08 15:56:00,68.9,62.1,28.44,NNE,17,3.6,8.3,79,0.00,,---,0.12,VWS V14.01,2013-08-08 20:56:00,
2013-08-08 16:01:00,68.9,61.8,28.44,NNE,17,0.0,4.9,78,0.00,,---,0.12,VWS V14.01,2013-08-08 21:01:00,
2013-08-08 16:06:00,69.1,62.3,28.44,North,7,2.7,5.8,79,0.00,,---,0.12,VWS V14.01,2013-08-08 21:06:00,
2013-08-08 16:11:00,69.3,62.5,28.44,NNW,336,3.6,5.8,79,0.00,,---,0.12,VWS V14.01,2013-08-08 21:11:00,
2013-08-08 16:16:00,69.4,62.7,28.44,NNE,24,0.0,5.8,79,0.00,,---,0.12,VWS V14.01,2013-08-08 21:16:00,
2013-08-08 16:21:00,69.6,62.8,28.44,NNE,14,2.7,6.3,79,0.00,,---,0.12,VWS V14.01,2013-08-08 21:21:00,
2013-08-08 16:28:00,69.6,62.8,28.44,North,0,2.7,6.3,79,0.00,,---,0.12,VWS V14.01,2013-08-08 21:28:00,
2013-08-08 16:33:00,69.6,62.8,28.44,NNE,29,3.1,6.3,79,0.00,,---,0.12,VWS V14.01,2013-08-08 21:33:00,
2013-08-08 16:38:00,69.6,63.2,28.44,NNE,16,3.1,7.2,80,0.00,,---,0.12,VWS V14.01,2013-08-08 21:38:00,
2013-08-08 16:44:00,69.8,63.4,28.44,North,0,2.7,7.2,80,0.00,,---,0.12,VWS V14.01,2013-08-08 21:44:00,
2013-08-08 16:49:00,69.8,63.4,28.44,North,5,4.5,7.2,80,0.00,,---,0.12,VWS V14.01,2013-08-08 21:49:00,
2013-08-08 16:54:00,70.0,63.5,28.44,North,5,3.1,7.2,80,0.00,,---,0.12,VWS V14.01,2013-08-08 21:54:00,
2013-08-08 16:59:00,70.0,63.9,28.44,North,3,0.0,7.2,81,0.00,,---,0.12,VWS V14.01,2013-08-08 21:59:00,
2013-08-08 17:04:00,70.2,64.1,28.44,North,0,2.2,4.0,81,0.00,,---,0.12,VWS V14.01,2013-08-08 22:04:00,
2013-08-08 17:10:00,70.2,64.1,28.44,North,0,2.2,4.0,81,0.00,,---,0.12,VWS V14.01,2013-08-08 22:10:00,
2013-08-08 17:15:00,70.2,64.1,28.44,NNE,12,2.2,4.0,81,0.00,,---,0.12,VWS V14.01,2013-08-08 22:15:00,
2013-08-08 17:20:00,70.2,64.1,28.44,North,0,0.0,4.0,81,0.00,,---,0.12,VWS V14.01,2013-08-08 22:20:00,
2013-08-08 17:25:00,70.2,64.1,28.44,North,9,3.1,4.0,81,0.00,,---,0.12,VWS V14.01,2013-08-08 22:25:00,
2013-08-08 17:30:00,70.2,64.1,28.44,NNE,23,5.4,5.4,81,0.00,,---,0.12,VWS V14.01,2013-08-08 22:30:00,
2013-08-08 17:36:00,70.3,64.2,28.44,North,0,0.0,7.2,81,0.00,,---,0.12,VWS V14.01,2013-08-08 22:36:00,
2013-08-08 17:41:00,70.3,64.2,28.44,North,357,0.0,7.2,81,0.00,,---,0.12,VWS V14.01,2013-08-08 22:41:00,
2013-08-08 17:46:00,70.3,64.2,28.44,North,2,2.7,7.2,81,0.00,,---,0.12,VWS V14.01,2013-08-08 22:46:00,
2013-08-08 17:51:00,70.3,63.9,28.44,North,2,0.0,7.2,80,0.00,,---,0.12,VWS V14.01,2013-08-08 22:51:00,
2013-08-08 17:57:00,70.5,64.1,28.44,North,353,0.0,7.2,80,0.00,,---,0.12,VWS V14.01,2013-08-08 22:57:00,
2013-08-08 18:02:00,70.3,64.2,28.44,North,357,2.2,2.2,81,0.00,,---,0.12,VWS V14.01,2013-08-08 23:02:00,
2013-08-08 18:07:00,70.3,64.2,28.44,North,353,0.0,8.3,81,0.00,,---,0.12,VWS V14.01,2013-08-08 23:07:00,
2013-08-08 18:13:00,70.3,64.2,28.44,North,353,3.6,8.3,81,0.00,,---,0.12,VWS V14.01,2013-08-08 23:13:00,
2013-08-08 18:18:00,70.3,64.2,28.44,NNE,28,2.7,8.3,81,0.00,,---,0.12,VWS V14.01,2013-08-08 23:18:00,
2013-08-08 18:23:00,70.3,64.2,28.44,NNE,30,4.9,8.3,81,0.00,,---,0.12,VWS V14.01,2013-08-08 23:23:00,
2013-08-08 18:29:00,70.2,63.3,28.44,North,0,4.0,8.3,79,0.00,,---,0.12,VWS V14.01,2013-08-08 23:29:00,
2013-08-08 18:35:00,70.0,63.2,28.44,NNE,14,3.1,8.3,79,0.00,,---,0.12,VWS V14.01,2013-08-08 23:35:00,
2013-08-08 18:40:00,70.0,63.2,28.41,NNE,14,3.6,8.3,79,0.00,,---,0.12,VWS V14.01,2013-08-08 23:40:00,
2013-08-08 18:45:00,70.0,63.2,28.41,NNE,16,2.7,8.3,79,0.00,,---,0.12,VWS V14.01,2013-08-08 23:45:00,
2013-08-08 18:50:00,69.8,63.0,28.41,North,0,2.7,8.3,79,0.00,,---,0.12,VWS V14.01,2013-08-08 23:50:00,
2013-08-08 18:56:00,69.8,63.0,28.41,North,9,3.1,8.3,79,0.00,,---,0.12,VWS V14.01,2013-08-08 23:56:00,
2013-08-08 19:01:00,69.8,63.0,28.41,NNE,15,0.0,3.6,79,0.00,,---,0.12,VWS V14.01,2013-08-09 00:01:00,
2013-08-08 19:06:00,69.8,62.6,28.41,North,3,0.0,5.8,78,0.00,,---,0.12,VWS V14.01,2013-08-09 00:06:00,
2013-08-08 19:12:00,69.8,62.6,28.41,North,8,3.1,5.8,78,0.00,,---,0.12,VWS V14.01,2013-08-09 00:12:00,
2013-08-08 19:18:00,69.8,62.3,28.41,NNE,20,3.6,6.3,77,0.00,,---,0.12,VWS V14.01,2013-08-09 00:18:00,
2013-08-08 19:23:00,69.8,61.9,28.41,NNE,14,7.2,7.2,76,0.00,,---,0.12,VWS V14.01,2013-08-09 00:23:00,
2013-08-08 19:28:00,69.8,61.9,28.41,North,353,3.6,7.2,76,0.00,,---,0.12,VWS V14.01,2013-08-09 00:28:00,
2013-08-08 19:33:00,69.8,61.9,28.41,North,357,3.1,7.2,76,0.00,,---,0.12,VWS V14.01,2013-08-09 00:33:00,
2013-08-08 19:38:00,69.8,61.5,28.41,NNW,345,2.7,7.2,75,0.00,,---,0.12,VWS V14.01,2013-08-09 00:38:00,
2013-08-08 19:43:00,69.8,61.5,28.41,NNE,28,4.9,7.2,75,0.00,,---,0.12,VWS V14.01,2013-08-09 00:43:00,
2013-08-08 19:49:00,69.8,61.5,28.41,NNE,26,2.7,7.2,75,0.00,,---,0.12,VWS V14.01,2013-08-09 00:49:00,
2013-08-08 19:54:00,69.8,61.5,28.41,North,357,3.6,7.2,75,0.00,,---,0.12,VWS V14.01,2013-08-09 00:54:00,
2013-08-08 19:59:00,69.6,61.7,28.41,NNE,32,4.0,7.2,76,0.00,,---,0.12,VWS V14.01,2013-08-09 00:59:00,
2013-08-08 20:04:00,69.6,61.7,28.41,North,357,0.0,4.0,76,0.00,,---,0.12,VWS V14.01,2013-08-09 01:04:00,
2013-08-08 20:09:00,69.6,61.7,28.41,North,357,0.0,4.0,76,0.00,,---,0.12,VWS V14.01,2013-08-09 01:09:00,
2013-08-08 20:14:00,69.6,61.7,28.41,NNE,14,0.0,4.0,76,0.00,,---,0.12,VWS V14.01,2013-08-09 01:14:00,
2013-08-08 20:19:00,69.6,62.1,28.41,NNE,14,0.0,4.0,77,0.00,,---,0.12,VWS V14.01,2013-08-09 01:19:00,
2013-08-08 20:25:00,69.6,62.1,28.44,NNE,14,0.0,4.0,77,0.00,,---,0.12,VWS V14.01,2013-08-09 01:25:00,
2013-08-08 20:32:00,69.6,62.1,28.44,NNW,344,0.0,4.9,77,0.00,,---,0.12,VWS V14.01,2013-08-09 01:32:00,
2013-08-08 20:38:00,69.6,62.1,28.44,NNE,12,0.0,4.9,77,0.00,,---,0.12,VWS V14.01,2013-08-09 01:38:00,
2013-08-08 20:43:00,69.6,62.5,28.44,NNE,12,0.0,4.9,78,0.00,,---,0.12,VWS V14.01,2013-08-09 01:43:00,
2013-08-08 20:48:00,69.6,62.5,28.44,NNE,12,0.0,4.9,78,0.00,,---,0.12,VWS V14.01,2013-08-09 01:48:00,
2013-08-08 20:53:00,69.6,62.5,28.44,NNE,12,0.0,4.9,78,0.00,,---,0.12,VWS V14.01,2013-08-09 01:53:00,
2013-08-08 20:58:00,69.6,62.5,28.44,NNE,13,2.7,4.9,78,0.00,,---,0.12,VWS V14.01,2013-08-09 01:58:00,
2013-08-08 21:03:00,69.6,62.5,28.44,NNE,13,0.0,0.0,78,0.00,,---,0.12,VWS V14.01,2013-08-09 02:03:00,
2013-08-08 21:08:00,69.6,62.8,28.44,North,5,2.2,2.7,79,0.00,,---,0.12,VWS V14.01,2013-08-09 02:08:00,
2013-08-08 21:13:00,69.6,62.8,28.44,North,5,0.0,2.7,79,0.00,,---,0.12,VWS V14.01,2013-08-09 02:13:00,
2013-08-08 21:18:00,69.6,62.8,28.44,East,91,0.0,4.9,79,0.00,,---,0.12,VWS V14.01,2013-08-09 02:18:00,
2013-08-08 21:24:00,69.6,62.8,28.44,East,91,0.0,4.9,79,0.00,,---,0.12,VWS V14.01,2013-08-09 02:24:00,
2013-08-08 21:29:00,69.6,62.8,28.44,North,0,0.0,4.9,79,0.00,,---,0.12,VWS V14.01,2013-08-09 02:29:00,
2013-08-08 21:34:00,69.6,62.8,28.44,North,0,0.0,4.9,79,0.00,,---,0.12,VWS V14.01,2013-08-09 02:34:00,
2013-08-08 21:40:00,69.6,62.5,28.44,North,357,0.0,4.9,78,0.00,,---,0.12,VWS V14.01,2013-08-09 02:40:00,
2013-08-08 21:45:00,69.6,62.5,28.44,North,357,0.0,4.9,78,0.00,,---,0.12,VWS V14.01,2013-08-09 02:45:00,
2013-08-08 21:50:00,69.6,62.5,28.44,North,357,0.0,4.9,78,0.00,,---,0.12,VWS V14.01,2013-08-09 02:50:00,
2013-08-08 21:56:00,69.6,62.5,28.47,North,0,0.0,4.9,78,0.00,,---,0.12,VWS V14.01,2013-08-09 02:56:00,
2013-08-08 22:01:00,69.6,62.5,28.47,North,0,0.0,0.0,78,0.00,,---,0.12,VWS V14.01,2013-08-09 03:01:00,
2013-08-08 22:07:00,69.6,62.5,28.47,North,0,0.0,3.1,78,0.00,,---,0.12,VWS V14.01,2013-08-09 03:07:00,
2013-08-08 22:12:00,69.6,62.5,28.47,North,0,0.0,3.1,78,0.00,,---,0.12,VWS V14.01,2013-08-09 03:12:00,
2013-08-08 22:17:00,69.6,62.5,28.47,North,0,0.0,3.1,78,0.00,,---,0.12,VWS V14.01,2013-08-09 03:17:00,
2013-08-08 22:23:00,69.6,62.5,28.47,North,0,0.0,3.1,78,0.00,,---,0.12,VWS V14.01,2013-08-09 03:23:00,
2013-08-08 22:28:00,69.8,62.6,28.47,North,0,0.0,3.1,78,0.00,,---,0.12,VWS V14.01,2013-08-09 03:28:00,
2013-08-08 22:33:00,69.8,62.6,28.47,North,0,0.0,3.1,78,0.00,,---,0.12,VWS V14.01,2013-08-09 03:33:00,
2013-08-08 22:38:00,69.6,62.5,28.47,North,0,0.0,3.1,78,0.00,,---,0.12,VWS V14.01,2013-08-09 03:38:00,
2013-08-08 22:43:00,69.6,62.5,28.47,North,0,0.0,3.1,78,0.00,,---,0.12,VWS V14.01,2013-08-09 03:43:00,
2013-08-08 22:49:00,69.6,62.5,28.47,North,0,0.0,3.1,78,0.00,,---,0.12,VWS V14.01,2013-08-09 03:49:00,
2013-08-08 22:54:00,69.6,62.5,28.44,North,0,0.0,3.1,78,0.00,,---,0.12,VWS V14.01,2013-08-09 03:54:00,
2013-08-08 22:59:00,69.6,62.5,28.44,North,0,0.0,3.1,78,0.00,,---,0.12,VWS V14.01,2013-08-09 03:59:00,
2013-08-08 23:01:00,69.6,62.8,28.44,North,0,0.0,0.0,79,0.00,,---,0.12,VWS V14.01,2013-08-09 04:01:00,
2013-08-08 23:02:00,69.6,62.8,28.44,North,0,0.0,0.0,79,0.00,,---,0.12,VWS V14.01,2013-08-09 04:02:00,
2013-08-08 23:05:00,69.6,62.8,28.44,North,0,0.0,0.0,79,0.00,,---,0.12,VWS V14.01,2013-08-09 04:05:00,
2013-08-08 23:06:00,69.6,62.8,28.44,North,0,0.0,0.0,79,0.00,,---,0.12,VWS V14.01,2013-08-09 04:06:00,
2013-08-08 23:11:00,69.6,62.8,28.47,North,0,0.0,0.0,79,0.00,,---,0.12,VWS V14.01,2013-08-09 04:11:00,
2013-08-08 23:16:00,69.4,62.7,28.47,North,0,0.0,0.0,79,0.00,,---,0.12,VWS V14.01,2013-08-09 04:16:00,
2013-08-08 23:21:00,69.4,62.7,28.47,North,0,0.0,0.0,79,0.00,,---,0.12,VWS V14.01,2013-08-09 04:21:00,
2013-08-08 23:26:00,69.4,62.7,28.47,North,0,0.0,0.0,79,0.00,,---,0.12,VWS V14.01,2013-08-09 04:26:00,
2013-08-08 23:31:00,69.4,62.7,28.47,North,0,0.0,0.0,79,0.00,,---,0.12,VWS V14.01,2013-08-09 04:31:00,
2013-08-08 23:36:00,69.4,62.7,28.47,North,0,0.0,0.0,79,0.00,,---,0.12,VWS V14.01,2013-08-09 04:36:00,
2013-08-08 23:42:00,69.4,62.7,28.47,North,0,0.0,0.0,79,0.00,,---,0.12,VWS V14.01,2013-08-09 04:42:00,
2013-08-08 23:47:00,69.4,63.0,28.47,North,0,0.0,0.0,80,0.00,,---,0.12,VWS V14.01,2013-08-09 04:47:00,
2013-08-08 23:52:00,69.4,63.0,28.47,North,0,0.0,0.0,80,0.00,,---,0.12,VWS V14.01,2013-08-09 04:52:00,
2013-08-08 23:57:00,69.4,63.0,28.47,North,353,0.0,3.1,80,0.00,,---,0.12,VWS V14.01,2013-08-09 04:57:00,